Skip Page Navigation
NASA JPL Caltech
NASA Logo - Jet Propulsion Laboratory + View the NASA Portal
+ Center for Near-Earth Object Studies
JPL Home Earth Solar System Stars & Galaxies Technology
JPL Solar System Dynamics
BODIES ORBITS EPHEMERIDES TOOLS PHYSICAL DATA DISCOVERY FAQ SITE MAP
JPL Small-Body Database Browser
Search: [ help ]  
487671 (2015 PP113)
Classification: Main-belt Asteroid          SPK-ID: 2487671
Ephemeris | Orbit Diagram | Orbital Elements | Mission Design | Physical Parameters | Discovery Circumstances | Close-Approach Data ]

[ show orbit diagram ]
Orbital Elements at Epoch 2459000.5 (2020-May-31.0) TDB
Reference: JPL 12 (heliocentric ecliptic J2000)
 Element Value Uncertainty (1-sigma)   Units 
e .1213457725943503 8.5359e-08  
a 3.196115545059381 1.2196e-07 au
q 2.808280434943337 2.8714e-07 au
i 13.55689299360812 9.6456e-06 deg
node 129.9907885828256 3.0782e-05 deg
peri 187.355867421567 5.4541e-05 deg
M 300.6615136239249 4.6057e-05 deg
tp 2459344.506063230301
(2021-May-10.00606323)
0.00027911 TDB
period 2087.046541396795
5.71
0.00011946
3.271e-07
d
yr
n .172492559633607 9.8732e-09 deg/d
Q 3.583950655175425 1.3676e-07 au
  Orbit Determination Parameters
   # obs. used (total)      62  
   data-arc span      3565 days (9.76 yr)  
   first obs. used      2010-07-17  
   last obs. used      2020-04-20  
   planetary ephem.      DE431  
   SB-pert. ephem.      SB431-N16  
   condition code      0  
   norm. resid. RMS      .56621  
   source      ORB  
   producer      Otto Matic  
   solution date      2020-May-22 05:27:46  

Additional Information
 Earth MOID = 1.79519 au 
 Jupiter MOID = 1.7218 au 
 T_jup = 3.141 
[ show covariance matrix ]

Ephemeris | Orbit Diagram | Orbital Elements | Mission Design | Physical Parameters | Discovery Circumstances | Close-Approach Data ]

Physical Parameter Table
Parameter Symbol Value Units Sigma Reference Notes
absolute magnitude H 16.5   n/a MPO347388  

487671 (2015 PP113)          Discovered 2010-Jul-17 by WISE at WISE
Reference: Last Updated: 2017-03-14

[ hide close-approach data ]
Close-Approach Data   ...sorted by Date/Time (TDB)
Date/Time (TDB) Time Uncertainty
(days_HH:MM)
Body Nominal Distance (au) Minimum Distance (au) Maximum Distance (au) V-relative (km/s) V-infinity (km/s) JD (TDB) Time Uncertainty (minutes) Semi-major axis (km) Semi-minor axis (km) range-LOV angle (deg) N-sigma BP Orbit Ref. Reference Modified
1932-Apr-19 13:11 00:16 Jupiter 1.88753118470825 1.88752505058437 1.88753731925615 3.95566721082483 3.8405482172961 2426817.049230204 16.2797493414545 1476.30714388221 35.7506979340189 -78.2854049792629 1763871.68532556 T 12 CATAB v2.0f-lin.ifort 2020-May-22 05:27:56 2020-May-22 05:28
1943-Jul-24 05:58 00:13 Jupiter 1.80203017793554 1.80202797623591 1.80203237988747 3.84250464574344 3.71816703678752 2430929.748624762 13.2806995606096 1165.6790620386 36.0740529379061 -85.4271839171064 1620741.1359458 T 12 CATAB v2.0f-lin.ifort 2020-May-22 05:27:56 2020-May-22 05:28
1954-Oct-24 05:06 00:11 Jupiter 1.79381518993954 1.79381379783728 1.79381658209748 3.62496044774037 3.49227106916368 2435039.712626659 11.0883312824821 692.838166651332 45.8945453271116 84.4728161455478 1447785.41542862 T 12 CATAB v2.0f-lin.ifort 2020-May-22 05:27:56 2020-May-22 05:28
1966-Jan-02 08:51 00:10 Jupiter 1.86227198977146 1.86226926730284 1.86227471224104 3.28659073722307 3.14515705996907 2439127.868923145 9.49302985211963 180.853375684377 152.578610018817 -75.2440268086066 1329557.61008093 T 12 CATAB v2.0f-lin.ifort 2020-May-22 05:27:56 2020-May-22 05:28
1977-Feb-06 12:06 00:08 Jupiter 1.97425799179974 1.97425556359341 1.9742604200468 3.06230076860982 2.91883869058565 2443181.003877603 7.77711344836559 565.099914068729 58.0777771019609 -80.7192663513397 1463842.63814499 T 12 CATAB v2.0f-lin.ifort 2020-May-22 05:27:56 2020-May-22 05:28
2110-Jul-18 18:46 00:16 Jupiter 1.93221023504666 1.93220357017228 1.93221690026086 3.85456606797448 3.73910952959682 2491920.282267693 15.8926935750592 1349.48888319722 37.3658852125622 -75.7000547427563 1730223.12265304 T 12 CATAB v2.0f-lin.ifort 2020-May-22 05:27:56 2020-May-22 05:28
2121-Oct-20 04:52 00:18 Jupiter 1.82760709437696 1.82760257889383 1.82761161041827 3.88569891813306 3.76453667478817 2496031.702717271 18.0200724631621 1659.25967351054 35.3686972454315 -82.4530368578136 1680707.51986687 T 12 CATAB v2.0f-lin.ifort 2020-May-22 05:27:56 2020-May-22 05:28
2133-Jan-24 19:37 00:21 Jupiter 1.79369045962569 1.79368961194049 1.79369130731864 3.82462587396461 3.69909669756229 2500146.317523760 21.2625189195002 1704.67260055386 39.1526686967298 89.6189076096455 1615145.71705565 T 12 CATAB v2.0f-lin.ifort 2020-May-22 05:27:56 2020-May-22 05:28
2144-Apr-17 02:21 00:26 Jupiter 1.84060799799861 1.84060223560342 1.84061376061791 3.65431073109972 3.52613306525807 2504246.597831482 26.2395064917806 1095.43845211656 65.9753125393142 73.119302805614 1498166.80752107 T 12 CATAB v2.0f-lin.ifort 2020-May-22 05:27:56 2020-May-22 05:28
2155-Jun-09 13:28 00:33 Jupiter 1.95244979559204 1.9524397691741 1.95245982224237 3.42587169142916 3.29680843224981 2508317.060877179 32.8333147084454 1210.04091596204 88.6909194674524 -63.8301810320421 1633610.77617441 T 12 CATAB v2.0f-lin.ifort 2020-May-22 05:27:56 2020-May-22 05:28

Alternate Designations
 2015 PP113 = 2010 OG17 
Ephemeris | Orbit Diagram | Orbital Elements | Mission Design | Physical Parameters | Discovery Circumstances | Close-Approach Data ]
ABOUT SSD CREDITS/AWARDS PRIVACY/COPYRIGHT GLOSSARY LINKS
FirstGov 2020-Jul-11 01:46 UT
(server date/time)  
NASA Home Page
Site Manager:   Ryan S. Park
Webmaster  Alan B. Chamberlin